Theta_e
320 322 322 320 317 312 315 317 314 316 316 311 310 311 310 309 315 319 309 310 313 318 322 328 328 328 331 333 337 338 338 337 337 336 336 338 339 339 337 337 336 336 335 334 332 334 334 333 324
320 321 322 313 313 315 314 313 315 314 312 307 308 309 308 309 307 307 307 306 309 312 315 318 322 325 326 327 332 333 335 337 338 338 337 338 338 336 336 337 337 336 336 337 337 336 335 331 329
319 320 318 313 310 315 314 313 313 313 311 311 309 306 307 305 306 306 303 302 304 305 310 314 318 322 322 324 326 328 331 332 334 335 336 337 338 338 338 336 334 335 336 337 337 336 336 334 328
317 316 309 311 315 313 313 313 311 312 311 308 306 306 304 303 305 303 300 300 301 300 300 306 310 312 313 316 319 322 324 326 328 329 331 332 334 335 336 335 333 334 333 337 337 336 335 334 335
315 308 314 312 314 313 312 312 310 312 309 308 309 306 304 303 301 299 300 300 300 299 299 298 298 301 305 305 308 310 314 317 320 323 325 325 327 329 331 333 334 334 335 336 336 336 331 335 335
313 308 313 314 313 313 312 311 310 309 309 308 305 304 303 301 300 299 299 299 298 298 298 297 296 296 296 297 298 301 305 309 310 311 314 318 320 323 326 328 329 331 333 334 335 333 332 330 333
314 312 314 311 312 314 313 311 310 308 309 309 304 304 301 300 299 299 299 299 298 297 296 295 295 295 295 295 295 295 296 296 300 300 297 299 307 313 318 321 325 327 330 330 331 330 330 329 331
309 311 316 311 312 314 312 310 308 309 308 305 304 302 300 300 299 299 299 298 298 297 295 295 294 294 294 294 294 294 294 295 295 295 295 295 297 298 302 313 320 322 325 328 328 327 330 331 328
311 314 315 313 313 314 311 311 305 302 302 300 299 301 300 299 298 297 296 297 297 295 293 293 294 293 293 293 293 294 294 294 294 294 294 294 295 297 300 299 305 318 321 322 324 327 329 328 330
312 313 315 312 311 311 311 310 306 306 302 300 298 297 298 298 296 295 295 295 296 293 292 292 293 293 293 293 293 293 293 293 293 293 293 293 293 294 296 296 296 296 306 321 323 323 325 327 328
311 311 313 313 311 310 310 309 306 305 305 300 298 296 295 295 295 294 294 295 294 293 292 292 292 292 292 292 292 292 292 292 293 293 293 293 293 293 293 293 294 295 296 297 311 322 323 323 325
314 313 312 312 311 310 309 307 307 305 307 302 297 296 295 294 293 293 294 294 293 293 292 292 292 291 291 291 291 291 291 291 292 292 292 292 292 292 293 293 292 293 296 295 303 307 319 324 324
314 313 312 310 309 309 308 309 308 304 299 297 296 295 293 293 293 294 293 292 292 292 292 291 291 291 291 291 290 290 290 290 291 291 291 291 291 291 291 291 292 293 296 299 301 299 299 308 320
312 312 311 310 309 308 309 308 306 302 297 296 295 294 293 293 293 293 292 291 291 292 291 291 291 290 290 290 289 289 289 289 290 289 289 289 289 289 289 290 292 294 295 298 297 298 296 299 304
310 311 309 309 308 310 307 308 307 301 296 296 295 294 294 294 294 292 291 291 291 291 291 290 290 290 289 289 288 288 288 288 288 288 288 287 287 287 288 289 292 294 296 295 297 297 295 298 299
311 310 311 311 308 309 307 309 307 299 298 297 295 293 294 293 293 292 291 291 291 291 290 290 290 289 288 288 287 287 287 287 287 287 287 286 286 286 287 288 290 293 295 294 298 297 297 298 299
307 312 311 310 307 308 306 308 306 299 299 298 295 294 294 291 290 291 291 290 290 291 290 289 289 289 288 287 286 286 286 286 286 286 287 287 287 286 285 284 286 289 292 295 296 295 297 298 298
315 310 307 307 308 308 308 307 305 299 299 299 296 294 293 290 289 290 290 290 290 290 290 289 289 288 287 286 285 286 286 285 286 285 284 285 284 284 283 283 284 284 286 291 294 296 298 297 298
308 307 306 305 307 309 308 308 309 302 299 298 293 293 293 290 290 291 290 290 290 289 289 289 288 288 287 286 285 285 283 284 283 283 283 283 283 282 281 280 281 281 282 285 290 295 297 297 297
307 308 307 306 306 306 306 306 306 303 301 300 297 294 293 289 288 289 289 290 290 289 289 289 288 288 287 286 285 284 283 282 282 281 281 281 281 281 280 280 280 280 282 284 289 292 295 297 297
307 308 307 308 304 303 301 302 304 303 301 300 298 295 292 290 289 288 288 289 290 289 289 289 288 287 287 286 285 284 283 282 281 280 280 280 280 280 280 280 279 280 280 284 285 288 294 296 296
307 306 307 306 304 306 303 309 304 303 301 298 297 292 292 289 289 288 288 289 290 289 289 288 288 287 286 285 284 283 282 281 280 280 279 279 279 279 279 278 279 279 281 280 282 286 291 294 294
308 304 305 304 304 303 303 303 303 299 301 302 296 293 292 290 289 287 288 290 290 289 289 288 288 286 286 285 283 282 281 280 279 279 278 278 279 279 278 278 278 277 277 278 280 283 286 293 294
304 305 303 299 300 305 304 304 303 302 302 300 296 294 291 289 287 287 289 290 290 289 288 288 287 286 285 284 283 281 280 280 279 278 278 278 278 278 277 277 277 276 276 277 279 281 283 285 290
304 305 311 311 305 311 300 300 308 306 302 298 297 293 290 289 287 287 286 288 289 288 288 288 287 285 284 283 282 280 279 278 278 277 277 277 277 277 277 276 276 275 276 277 277 278 279 284 287
304 306 311 310 310 311 301 306 306 299 294 292 293 293 290 288 287 287 286 288 288 288 287 287 285 284 283 281 280 279 278 277 277 276 276 276 276 276 276 276 275 275 275 274 275 277 280 281 285
304 304 303 305 285 297 305 301 300 294 292 290 292 290 289 288 287 287 287 288 288 287 287 286 284 283 281 280 279 278 277 276 275 275 275 275 276 276 275 275 274 274 274 273 274 275 277 280 284
301 299 303 300 303 304 306 305 309 303 297 290 289 289 288 287 286 286 286 287 287 287 287 285 283 281 280 279 277 276 275 275 274 274 274 275 275 274 274 274 274 274 273 273 274 275 277 278 281
297 299 299 300 305 307 304 311 302 304 299 292 290 290 288 287 287 286 286 287 287 286 285 283 281 280 279 277 276 275 274 273 273 273 274 274 274 274 274 273 273 273 273 273 274 274 274 275 278
299 301 302 305 303 300 304 311 299 298 298 291 290 290 288 287 286 285 286 286 285 285 283 282 280 278 277 276 274 273 273 272 272 273 273 273 273 273 273 272 272 272 272 272 273 273 274 275 279
Wind_Speed
2 1 1 4 4 5 1 0 1 2 2 4 4 14 12 3 3 4 4 20 19 19 17 15 13 13 16 17 13 12 11 10 12 12 12 12 13 13 13 13 15 14 13 13 14 14 14 15 15
3 3 3 2 5 4 4 2 3 3 6 10 9 2 9 4 4 4 8 19 18 19 20 20 16 15 15 13 16 17 17 15 12 13 14 14 15 16 17 15 18 19 17 16 15 15 15 16 17
3 3 3 4 3 4 4 3 4 3 6 3 5 6 4 4 3 4 9 15 20 22 21 20 19 22 20 18 17 15 15 18 18 18 16 17 17 17 18 19 20 21 20 18 16 16 17 18 18
2 5 4 4 2 2 4 3 4 7 3 8 5 8 5 9 1 6 13 17 21 25 26 25 25 25 25 23 19 17 16 16 13 17 19 19 18 19 20 21 21 22 22 21 20 18 19 19 19
4 3 4 4 1 1 1 0 5 3 4 3 1 6 5 6 13 13 15 17 22 24 26 27 26 26 26 26 25 24 20 18 18 17 17 18 18 18 18 21 22 22 22 23 22 21 21 20 22
4 3 4 3 3 1 2 2 4 3 3 5 6 6 3 8 11 12 14 19 20 22 23 26 26 26 27 26 25 24 24 24 23 18 17 17 18 18 18 18 19 23 23 23 25 26 25 25 24
5 4 4 4 6 1 3 2 4 5 5 3 8 5 5 6 11 11 12 15 18 21 24 26 27 27 26 28 28 25 23 21 22 24 22 19 18 18 18 19 18 19 23 26 28 28 29 29 29
4 4 3 2 5 4 2 3 2 4 2 1 2 7 6 9 12 11 11 14 17 20 23 26 26 27 28 28 29 28 27 26 24 25 26 26 24 22 22 20 21 23 20 24 28 31 30 31 31
3 4 1 4 6 4 3 4 2 1 6 3 4 4 11 21 14 11 12 15 16 20 23 24 25 27 27 27 28 27 26 26 26 28 29 29 28 28 26 24 25 23 22 23 26 29 31 33 34
4 3 4 2 4 5 3 4 8 5 4 3 3 6 16 14 11 13 12 13 16 20 21 22 21 24 24 25 26 27 26 26 27 28 30 32 31 30 32 31 29 27 26 24 25 27 30 31 35
2 3 4 3 3 5 4 4 4 8 5 9 12 12 11 15 13 13 12 13 13 13 15 20 17 20 21 23 24 24 24 25 26 27 29 32 35 34 34 35 35 34 32 31 28 27 33 33 33
2 2 3 5 2 4 5 7 4 6 4 5 15 17 10 9 11 12 12 10 8 9 13 17 16 17 17 18 20 21 23 26 27 28 29 31 35 37 38 38 38 35 36 35 31 30 28 34 36
1 1 1 5 6 4 5 3 6 7 1 8 15 10 9 10 14 13 12 9 7 6 9 14 14 18 18 17 21 22 23 25 26 27 29 32 34 34 36 37 37 35 35 30 34 37 38 36 33
2 2 4 4 6 5 5 1 2 4 5 9 11 10 9 12 16 14 12 8 7 6 7 10 12 16 18 19 21 21 23 25 26 27 26 28 29 33 35 37 34 35 33 31 35 37 40 38 38
2 6 6 5 6 5 5 5 10 7 9 12 10 9 9 11 16 18 16 10 8 7 6 10 12 14 18 18 19 21 22 26 28 30 31 29 29 30 33 33 31 33 34 36 36 36 38 36 37
4 3 4 1 5 1 6 10 6 14 17 15 11 9 10 9 18 19 15 11 8 7 7 8 9 11 16 17 20 21 24 26 28 31 32 32 34 32 29 29 28 28 31 34 33 34 32 32 31
6 3 3 9 8 4 6 9 3 11 14 13 13 12 10 8 13 20 16 11 7 6 7 8 9 11 15 18 22 22 26 29 29 32 33 36 39 37 37 36 33 30 29 27 29 32 32 30 32
4 5 5 6 2 4 5 16 6 9 13 17 14 12 11 10 12 23 18 11 6 4 4 8 10 12 16 20 24 26 29 32 31 32 32 36 37 38 38 40 39 38 35 30 28 29 29 31 28
2 4 7 5 5 5 8 12 21 11 11 11 10 14 15 15 15 25 18 11 6 3 1 8 12 12 16 21 25 28 28 29 30 28 31 34 36 37 37 34 33 33 31 32 31 31 30 29 25
4 4 8 10 2 7 9 11 18 9 11 19 20 18 17 12 9 18 18 13 7 2 1 5 13 15 16 21 23 22 23 19 27 23 27 28 33 34 34 36 36 32 32 31 29 30 31 30 23
4 5 6 8 7 5 7 5 10 3 8 7 13 14 15 18 15 12 18 16 9 5 3 5 13 13 16 20 23 25 25 25 19 24 26 28 32 32 34 36 34 30 33 30 31 31 31 28 25
5 4 3 5 4 4 4 9 5 5 12 10 13 15 17 15 11 11 17 16 12 8 4 4 10 14 17 20 22 24 22 20 24 29 32 31 33 35 34 34 31 30 28 34 34 31 32 31 28
8 2 2 3 4 4 4 4 6 2 10 18 14 19 18 17 15 13 15 18 14 10 6 6 10 16 17 19 21 24 25 27 30 29 30 36 35 32 33 33 30 33 31 33 34 35 35 33 31
4 2 2 4 2 2 5 8 4 5 8 6 5 16 16 17 13 12 21 15 12 8 7 7 9 17 17 18 21 22 23 28 27 30 31 30 30 31 31 29 30 35 32 33 32 33 34 38 32
3 5 4 5 2 7 3 4 12 11 13 10 9 12 15 15 14 12 9 13 11 9 8 8 10 17 17 18 20 24 24 26 27 28 28 30 32 32 33 30 31 36 33 30 34 37 38 37 34
6 7 6 7 4 7 1 9 7 7 7 7 8 10 12 13 13 11 11 15 12 9 9 7 12 15 17 19 23 24 24 24 26 27 30 31 32 34 34 34 34 33 37 38 37 36 34 35 36
4 5 1 1 2 3 5 8 8 5 8 5 7 10 14 15 14 12 11 15 13 11 9 7 11 15 17 21 23 26 26 27 28 29 30 31 32 34 36 35 36 36 37 37 36 36 34 33 31
3 5 4 2 3 7 7 9 14 9 11 5 8 12 12 12 11 10 8 15 12 8 8 9 12 16 20 23 25 25 27 27 29 29 30 32 35 36 37 37 38 37 36 35 35 33 30 33 34
2 3 1 3 5 6 3 11 7 8 10 11 15 13 14 15 13 10 9 14 8 8 7 11 14 19 23 23 26 27 27 26 26 27 31 32 34 37 38 38 39 37 36 35 33 33 35 36 34
2 10 13 6 7 4 3 21 9 8 9 10 13 13 12 12 10 8 10 11 9 7 8 11 15 18 21 23 24 25 25 25 25 27 30 32 36 38 38 38 39 38 36 33 33 33 31 32 32
Wind_Direction
80 67 82 49 53 66 358 114 295 148 89 25 30 95 112 78 45 150 10 26 32 35 32 28 26 25 21 17 5 360 340 319 308 304 298 295 293 293 304 314 310 306 307 302 292 287 287 283 276
59 70 52 85 84 62 287 273 122 183 115 120 76 52 48 74 28 64 33 22 41 44 45 41 34 28 23 22 24 18 9 360 335 315 307 301 295 291 293 293 299 302 305 302 297 291 285 280 277
100 51 82 91 106 154 185 204 201 96 128 106 103 51 65 335 351 77 39 48 53 53 51 45 44 43 37 33 27 18 12 9 3 352 333 314 303 298 292 292 291 292 294 297 295 289 288 284 278
111 24 36 80 106 201 188 170 224 137 88 59 109 74 67 26 81 75 63 65 66 60 57 52 46 43 40 38 33 26 22 13 346 349 354 349 332 312 304 297 292 290 292 293 292 287 282 283 284
60 59 62 79 109 277 199 251 178 102 99 59 84 138 100 57 100 91 77 68 63 58 55 54 53 48 43 41 36 32 25 17 10 3 354 347 337 326 319 310 301 294 289 288 289 287 283 279 278
39 86 70 159 205 285 308 158 123 78 101 148 83 101 126 131 118 96 82 71 64 59 52 47 45 42 38 35 33 30 26 22 20 9 355 342 339 336 328 315 312 307 295 288 285 284 283 279 278
114 88 163 142 168 190 186 129 104 126 111 61 143 102 154 154 126 109 91 78 64 54 47 42 39 36 35 31 29 26 22 16 13 11 3 357 342 333 330 325 317 311 309 296 285 284 283 281 280
105 92 110 153 176 204 301 82 79 78 167 59 124 174 188 185 148 119 97 77 60 49 42 35 30 29 27 26 25 23 20 15 11 5 0 357 351 347 341 327 321 320 307 301 294 290 285 283 278
120 62 131 160 153 190 209 136 33 65 98 43 327 141 151 150 146 126 90 70 60 48 39 30 26 23 20 19 16 14 13 10 7 3 2 357 352 351 346 339 337 324 317 311 304 294 285 284 281
79 97 198 211 166 171 198 169 158 135 135 52 42 74 138 150 137 101 83 67 56 44 38 31 26 19 15 14 13 10 9 6 3 1 358 356 354 349 340 337 335 331 325 313 311 301 297 290 281
185 162 174 208 189 158 182 138 153 134 227 196 181 169 157 149 132 117 94 77 65 51 41 30 25 18 15 13 9 11 9 5 0 359 359 354 349 346 343 336 332 330 328 325 314 311 301 298 291
6 339 163 173 228 155 184 135 178 207 235 186 162 160 153 150 140 126 111 104 81 62 41 28 28 19 15 11 10 12 10 7 5 1 358 354 348 343 341 336 332 328 327 324 320 313 312 302 293
98 307 252 171 183 224 137 198 212 237 226 123 130 145 154 152 148 138 129 100 71 68 42 28 26 18 16 12 9 11 10 9 10 6 359 352 345 340 335 331 328 325 323 325 316 315 311 301 303
314 265 266 223 207 200 196 170 42 192 138 126 151 166 168 165 164 148 138 111 90 87 48 30 31 19 17 14 9 9 8 7 11 6 358 350 344 336 332 329 324 318 318 315 313 312 313 310 298
337 329 327 212 191 217 136 270 235 152 161 168 180 176 178 185 173 165 154 124 101 93 58 32 29 19 20 14 8 7 6 8 7 4 359 355 347 338 334 326 318 312 313 312 307 310 312 309 308
22 51 351 298 146 205 133 263 263 165 169 190 190 186 186 190 181 167 151 125 106 99 61 40 29 17 14 14 6 3 5 6 4 1 358 356 350 346 334 326 317 311 305 305 299 306 304 306 306
13 275 251 312 198 125 187 268 258 175 189 195 198 193 192 186 182 174 163 141 116 106 54 31 28 16 7 6 360 360 3 0 360 356 355 353 350 348 337 331 320 317 312 300 294 294 292 298 301
269 285 255 238 296 208 232 265 252 202 201 210 198 192 197 194 194 182 175 157 122 101 46 19 14 8 3 0 355 357 354 355 352 349 350 348 345 344 340 329 323 313 307 304 297 286 283 287 294
207 233 247 246 235 226 237 251 271 208 217 222 202 199 202 202 196 186 181 172 149 121 83 12 5 1 357 356 356 355 348 346 343 344 341 341 341 340 333 319 314 315 307 293 298 290 284 281 289
220 272 270 283 245 197 259 247 273 214 223 214 208 203 202 194 186 189 189 191 188 166 229 353 3 356 351 350 352 345 337 334 336 338 327 329 333 329 328 324 314 310 306 299 296 288 278 271 277
221 199 246 241 336 278 320 256 246 278 256 240 220 209 205 195 186 189 195 198 198 215 240 336 355 345 345 347 346 341 338 335 334 325 323 320 322 325 324 322 307 301 304 295 294 293 278 271 271
277 213 270 292 346 248 41 291 254 252 270 224 215 200 202 190 189 188 191 195 205 218 235 280 335 341 343 343 341 338 329 318 318 318 317 314 323 325 318 311 300 300 299 295 291 286 288 262 268
224 110 214 218 246 332 226 248 256 57 275 260 216 215 205 193 187 186 191 197 205 214 234 267 322 339 339 335 335 332 321 318 317 310 310 320 322 316 307 305 296 301 298 290 287 287 281 274 259
111 21 52 55 77 287 225 191 234 204 218 257 218 213 194 190 183 186 193 195 210 225 248 262 311 331 329 327 329 326 314 315 307 312 316 311 306 307 303 296 290 303 296 290 285 287 283 281 279
102 70 321 324 339 237 144 234 252 248 250 237 230 208 201 188 181 184 183 196 215 235 251 253 307 313 325 319 324 324 317 309 306 307 304 300 302 303 298 295 293 298 293 287 290 285 284 277 274
171 165 166 248 240 285 200 245 249 237 281 283 261 213 195 187 183 185 187 198 213 239 253 246 305 304 324 324 322 319 316 311 307 299 298 294 293 293 294 295 293 290 288 291 286 279 276 279 278
170 183 160 54 99 340 240 286 291 289 280 276 212 178 192 190 185 185 191 199 213 234 234 268 301 313 322 321 323 321 320 315 303 300 299 293 290 293 296 294 293 289 285 286 286 283 285 283 283
148 158 85 14 271 265 264 274 247 245 262 195 222 217 201 190 185 191 187 202 217 235 227 290 308 318 324 329 323 316 313 311 308 302 297 296 294 296 296 296 294 289 285 283 281 280 278 275 274
126 221 158 149 171 204 297 269 202 214 219 205 214 214 200 199 192 186 188 203 213 211 261 297 324 328 327 324 321 314 314 311 303 298 300 299 298 298 296 295 293 289 287 283 279 278 276 275 273
230 200 182 197 231 240 143 261 166 196 236 183 213 210 204 202 187 181 186 192 196 229 271 315 326 321 322 319 313 314 310 308 307 306 303 303 300 299 296 295 292 289 287 280 276 275 273 274 271